Hourly Data Report for September 14, 2017

All times are specified in Local Standard Time (LST). Add 1 hour to adjust for Daylight Saving Time where and when it is observed.

POINT LEPREAU CS
NEW BRUNSWICK

45°04'23.040" N
66°26'57.090" W
6.00 m
8104201
71699
WPE

Download Data

Hourly Data (September 2017)
Hourly Data Report for September 14, 2017
Temp Definition
°C
Dew Point Temp Definition
°C
Rel Hum Definition
%
Wind Dir Definition
10's deg

Wind Spd Definition
km/h
Visibility Definition
km
Stn Press Definition
kPa
Hmdx Definition


Wind Chill Definition


Weather Definition


TIME
00:00 13.2 12.4 95 28 4   100.74     LegendNANA
01:00 13.4 12.6 95 28 7   100.77     LegendNANA
02:00 13.3 12.5 95 26 6   100.80     LegendNANA
03:00 13.2 12.5 96 26 7   100.78     LegendNANA
04:00 13.0 12.4 96 28 3   100.79     LegendNANA
05:00 12.8 12.3 97 28 3   100.82     LegendNANA
06:00 12.4 12.2 98 28 5   100.86     LegendNANA
07:00 13.8 13.4 97 29 4   100.91     LegendNANA
08:00 16.0 14.3 90 28 7   100.91     LegendNANA
09:00 16.6 14.4 87 21 7   100.95     LegendNANA
10:00 17.8 15.4 86 21 9   100.99     LegendNANA
11:00 17.5 15.5 88 17 12   100.96     LegendNANA
12:00 18.0 15.9 87 18 9   100.95     LegendNANA
13:00 16.7 15.3 91 16 10   100.93     LegendNANA
14:00 17.6 15.9 90 16 10   100.89     LegendNANA
15:00 19.3 16.5 84 20 9   100.90     LegendNANA
16:00 16.1 14.5 91 16 9   100.91     LegendNANA
17:00 16.7 15.4 92 19 13   100.94     LegendNANA
18:00 15.6 14.6 94 22 3   100.99     LegendNANA
19:00 14.8 14.2 96 24 1   101.04     LegendNANA
20:00 14.0 13.7 98 19 2   101.14     LegendNANA
21:00 13.7 LegendMM 100 23 5   101.16     LegendNANA
22:00 13.3 LegendMM 100 18 5   101.21     LegendNANA
23:00 13.3 LegendMM 100 17 5   101.26     LegendNANA

Notes on Data Quality.

Legend

  • E = Estimated
  • M = Missing
  • NA = Not Available
  • ‡ = Partner data that is not subject to review by the National Climate Archives
Date modified: